Jefferson, NC

6:28 AM EDT on October 18, 2017 (GMT -0400)
Ashe County

Weather History for KGEV - December, 2013

Change the Weather History Date:

Tuesday, December 24, 2013

  Actual Average Record
Temperature  
Mean Temperature 22 °F -  
Max Temperature 28 °F 44 °F 65 °F (2015)
Min Temperature 16 °F 23 °F -5 °F (1983)
Degree Days  
Heating Degree Days 42    
Moisture  
Dew Point 15 °F    
Average Humidity 67    
Maximum Humidity 82    
Minimum Humidity 55    
Precipitation  
Precipitation 0.00 in - - ()
Sea Level Pressure  
Sea Level Pressure 30.20 in    
Wind  
Wind Speed 5 mph (WNW)    
Max Wind Speed 23 mph    
Max Gust Speed 32 mph    
Visibility 10 miles    
Events Snow    
Averages and records for this station are not official NWS values.
T = Trace of Precipitation, MM = Missing Value Source: NWS Daily Summary

Daily Weather History Graph

Daily Weather History Graph

Search for Another Location

Airport or City:

Trip Planner

Search our weather history database for the weather conditions in past years. The results will help you decide how hot, cold, wet, or windy it might be!

Date:

Astronomy

Dec. 24, 2013 Rise Set
Actual Time 7:35 AM EST 5:15 PM EST
Civil Twilight 7:06 AM EST 5:44 PM EST
Nautical Twilight 6:34 AM EST 6:16 PM EST
Astronomical Twilight 6:02 AM EST 6:48 PM EST
Moon No Moon Rise 11:39 AM EST (12/24)
Length of Visible Light 10h 38m
Length of Day
9h 40m
Waning Gibbous, 59% of the Moon is Illuminated
Dec 24
Waning Gibbous
Dec 25
Last Quarter
Jan 1
New
Jan 7
First Quarter
Jan 15
Full

Hourly Weather History & Observations

Time (EST) Temp. Windchill Dew Point Humidity Pressure Visibility Wind Dir Wind Speed Gust Speed Precip Events Conditions
12:15 AM 29.3 °F - 22.3 °F 75% 30.15 in 10.0 mi Calm Calm - N/A   Clear
12:35 AM 28.6 °F - 22.1 °F 77% 30.15 in 10.0 mi Calm Calm - N/A   Clear
12:55 AM 27.7 °F - 22.8 °F 82% 30.14 in 10.0 mi Calm Calm - N/A   Clear
1:15 AM 28.2 °F - 21.7 °F 77% 30.14 in 10.0 mi Calm Calm - N/A   Clear
1:35 AM 27.5 °F - 22.1 °F 80% 30.14 in 10.0 mi Calm Calm - N/A   Clear
1:55 AM 27.3 °F 23.4 °F 21.0 °F 77% 30.14 in 10.0 mi NNW 3.5 mph - N/A   Clear
2:15 AM 26.6 °F - 21.0 °F 79% 30.14 in 10.0 mi Calm Calm - N/A   Clear
2:35 AM 26.6 °F - 20.8 °F 79% 30.14 in 10.0 mi Calm Calm - N/A   Clear
2:55 AM 26.4 °F - 20.3 °F 78% 30.14 in 10.0 mi Calm Calm - N/A   Clear
3:15 AM 26.4 °F 20.9 °F 20.3 °F 78% 30.14 in 10.0 mi NW 4.6 mph - N/A   Clear
3:35 AM 26.2 °F 20.7 °F 20.8 °F 80% 30.14 in 10.0 mi NW 4.6 mph - N/A   Clear
3:55 AM 26.1 °F - 21.0 °F 81% 30.14 in 10.0 mi Calm Calm - N/A   Clear
4:15 AM 26.4 °F - 21.2 °F 81% 30.13 in 10.0 mi Calm Calm - N/A   Clear
4:35 AM 26.1 °F - 21.2 °F 82% 30.13 in 10.0 mi Calm Calm - N/A   Scattered Clouds
4:55 AM 26.1 °F - 20.1 °F 78% 30.12 in 10.0 mi Calm Calm - N/A   Scattered Clouds
5:15 AM 25.7 °F 19.0 °F 19.9 °F 79% 30.12 in 10.0 mi NW 5.8 mph - N/A   Scattered Clouds
5:35 AM 25.7 °F 18.0 °F 19.4 °F 77% 30.12 in 10.0 mi WNW 6.9 mph - N/A   Clear
5:55 AM 26.2 °F 15.2 °F 19.4 °F 75% 30.12 in 10.0 mi WNW 12.7 mph 21.9 mph N/A   Clear
6:15 AM 26.2 °F 19.6 °F 19.2 °F 75% 30.13 in 10.0 mi NW 5.8 mph 17.3 mph N/A   Scattered Clouds
6:35 AM 25.7 °F 19.0 °F 19.2 °F 76% 30.14 in 10.0 mi West 5.8 mph 20.7 mph N/A   Scattered Clouds
6:55 AM 25.7 °F 20.1 °F 19.2 °F 76% 30.15 in 10.0 mi NW 4.6 mph - N/A   Overcast
7:15 AM 25.5 °F 18.7 °F 19.2 °F 77% 30.14 in 10.0 mi West 5.8 mph - N/A   Overcast
7:35 AM 25.5 °F 17.8 °F 18.9 °F 76% 30.15 in 10.0 mi WNW 6.9 mph 10.4 mph N/A   Mostly Cloudy
7:55 AM 25.7 °F 18.0 °F 18.5 °F 74% 30.15 in 10.0 mi West 6.9 mph - N/A   Mostly Cloudy
8:15 AM 26.1 °F 19.4 °F 18.7 °F 74% 30.16 in 10.0 mi WNW 5.8 mph - N/A   Mostly Cloudy
8:35 AM 26.2 °F 13.8 °F 18.3 °F 72% 30.17 in 10.0 mi West 16.1 mph 27.6 mph N/A   Mostly Cloudy
8:55 AM 27.5 °F 15.0 °F 18.9 °F 70% 30.18 in 10.0 mi West 17.3 mph 24.2 mph N/A   Mostly Cloudy
9:15 AM 27.3 °F 17.1 °F 19.4 °F 72% 30.18 in 7.0 mi WNW 11.5 mph 25.3 mph N/A   Overcast
9:35 AM 27.5 °F 18.0 °F 19.4 °F 72% 30.19 in 7.0 mi WNW 10.4 mph 26.5 mph N/A   Overcast
9:55 AM 28.2 °F 14.2 °F 18.5 °F 67% 30.18 in 10.0 mi WNW 23.0 mph 31.1 mph N/A   Mostly Cloudy
10:15 AM 28.8 °F 14.9 °F 17.8 °F 64% 30.20 in 7.0 mi WNW 23.0 mph 32.2 mph N/A   Mostly Cloudy
10:35 AM 28.4 °F 16.2 °F 17.2 °F 63% 30.22 in 7.0 mi West 17.3 mph 25.3 mph N/A   Overcast
10:55 AM 28.2 °F 17.7 °F 16.7 °F 62% 30.21 in 10.0 mi West 12.7 mph 23.0 mph N/A   Overcast
11:15 AM 27.9 °F 19.1 °F 16.0 °F 61% 30.21 in 10.0 mi WNW 9.2 mph 17.3 mph N/A   Overcast
11:35 AM 28.2 °F - 15.8 °F 60% 30.20 in 10.0 mi Calm Calm - N/A   Overcast
11:55 AM 27.7 °F 16.1 °F 14.2 °F 57% 30.19 in 10.0 mi WNW 15.0 mph 23.0 mph N/A   Mostly Cloudy
12:15 PM 28.0 °F 18.6 °F 16.0 °F 61% 30.20 in 7.0 mi NW 10.4 mph 24.2 mph N/A Snow Light Snow
12:35 PM 26.2 °F 15.8 °F 19.9 °F 77% 30.18 in 1.8 mi NW 11.5 mph 16.1 mph N/A Snow Light Snow
12:55 PM 27.3 °F 17.7 °F 18.7 °F 70% 30.18 in 10.0 mi NW 10.4 mph 19.6 mph N/A   Overcast
1:20 PM 26.1 °F 13.6 °F 15.6 °F 65% 30.19 in 10.0 mi WNW 16.1 mph 29.9 mph N/A Snow Light Snow
1:35 PM 26.2 °F 16.4 °F 16.2 °F 66% 30.20 in 10.0 mi NW 10.4 mph 23.0 mph N/A   Overcast
1:55 PM 26.8 °F 17.1 °F 15.6 °F 63% 30.20 in 10.0 mi WNW 10.4 mph 18.4 mph N/A   Overcast
2:15 PM 26.2 °F 14.7 °F 14.4 °F 61% 30.20 in 10.0 mi West 13.8 mph 23.0 mph N/A   Overcast
2:35 PM 26.1 °F 16.2 °F 14.0 °F 60% 30.21 in 10.0 mi WNW 10.4 mph 24.2 mph N/A   Overcast
2:55 PM 25.7 °F 14.0 °F 12.7 °F 58% 30.22 in 10.0 mi West 13.8 mph 20.7 mph N/A   Overcast
3:15 PM 26.1 °F 14.0 °F 12.9 °F 58% 30.21 in 10.0 mi West 15.0 mph 21.9 mph N/A   Overcast
3:35 PM 25.3 °F 16.0 °F 12.2 °F 58% 30.22 in 10.0 mi NW 9.2 mph 29.9 mph N/A   Overcast
3:55 PM 24.3 °F 16.3 °F 11.1 °F 57% 30.22 in 10.0 mi WSW 6.9 mph 26.5 mph N/A   Scattered Clouds
4:15 PM 24.3 °F 14.6 °F 11.1 °F 57% 30.23 in 10.0 mi NW 9.2 mph 16.1 mph N/A   Scattered Clouds
4:35 PM 23.9 °F 13.5 °F 10.2 °F 56% 30.23 in 10.0 mi NW 10.4 mph 19.6 mph N/A   Scattered Clouds
4:55 PM 23.4 °F 13.5 °F 10.0 °F 57% 30.24 in 10.0 mi NW 9.2 mph 16.1 mph N/A   Mostly Cloudy
5:15 PM 22.6 °F 8.7 °F 9.0 °F 56% 30.24 in 10.0 mi NW 17.3 mph 26.5 mph N/A   Scattered Clouds
5:35 PM 22.1 °F 14.7 °F 8.4 °F 56% 30.25 in 10.0 mi NW 5.8 mph - N/A   Clear
5:55 PM 21.7 °F 13.2 °F 7.7 °F 55% 30.26 in 10.0 mi NW 6.9 mph 16.1 mph N/A   Clear
6:15 PM 21.2 °F 16.4 °F 7.9 °F 57% 30.26 in 10.0 mi WSW 3.5 mph - N/A   Clear
6:35 PM 21.0 °F 14.6 °F 7.7 °F 56% 30.27 in 10.0 mi West 4.6 mph 17.3 mph N/A   Clear
6:55 PM 20.8 °F 9.0 °F 8.2 °F 58% 30.27 in 10.0 mi WNW 11.5 mph - N/A   Clear
7:15 PM 20.3 °F 8.3 °F 8.4 °F 60% 30.26 in 10.0 mi NW 11.5 mph 23.0 mph N/A   Clear
7:35 PM 20.1 °F 12.3 °F 7.7 °F 59% 30.27 in 10.0 mi WNW 5.8 mph - N/A   Clear
7:55 PM 19.9 °F 14.9 °F 6.8 °F 57% 30.27 in 10.0 mi West 3.5 mph - N/A   Clear
8:15 PM 19.9 °F 11.1 °F 6.4 °F 56% 30.27 in 10.0 mi WNW 6.9 mph 20.7 mph N/A   Clear
8:35 PM 19.4 °F 11.5 °F 5.7 °F 55% 30.28 in 10.0 mi NW 5.8 mph 17.3 mph N/A   Clear
8:55 PM 18.9 °F 9.8 °F 5.7 °F 57% 30.28 in 10.0 mi NW 6.9 mph - N/A   Clear
9:15 PM 18.7 °F 7.8 °F 5.0 °F 55% 30.28 in 10.0 mi NNW 9.2 mph - N/A   Clear
9:35 PM 18.3 °F 10.2 °F 5.4 °F 57% 30.29 in 10.0 mi NNW 5.8 mph - N/A   Clear
9:55 PM 18.1 °F 11.3 °F 5.5 °F 58% 30.29 in 10.0 mi NNW 4.6 mph - N/A   Clear
10:15 PM 18.1 °F 11.3 °F 5.0 °F 57% 30.29 in 10.0 mi NW 4.6 mph - N/A   Clear
10:35 PM 18.0 °F 6.9 °F 5.0 °F 57% 30.29 in 10.0 mi NW 9.2 mph - N/A   Clear
10:55 PM 17.6 °F 12.3 °F 5.0 °F 58% 30.29 in 10.0 mi NNW 3.5 mph - N/A   Clear
11:15 PM 17.2 °F - 6.1 °F 62% 30.29 in 10.0 mi Calm Calm - N/A   Clear
11:35 PM 16.7 °F - 5.7 °F 62% 30.29 in 10.0 mi Calm Calm - N/A   Clear
11:55 PM 16.7 °F - 6.3 °F 64% 30.29 in 10.0 mi Calm Calm - N/A   Clear